Year,Month,Day,Hour,Minute,Value (Times are PST for temperature in C)
2008,06,23,00,00,6.80
2008,06,23,00,01,6.80
2008,06,23,00,02,6.80
2008,06,23,00,03,6.80
2008,06,23,00,04,6.70
2008,06,23,00,05,6.70
2008,06,23,00,06,6.70
2008,06,23,00,07,6.70
2008,06,23,00,08,6.70
2008,06,23,00,09,6.70
2008,06,23,00,10,6.70
2008,06,23,00,11,6.70
2008,06,23,00,12,6.70
2008,06,23,00,13,6.70
2008,06,23,00,14,6.60
2008,06,23,00,15,6.60
2008,06,23,00,16,6.60
2008,06,23,00,17,6.60
2008,06,23,00,18,6.60
2008,06,23,00,19,6.60
2008,06,23,00,20,6.60
2008,06,23,00,21,6.60
2008,06,23,00,22,6.60
2008,06,23,00,23,6.60
2008,06,23,00,24,6.50
2008,06,23,00,25,6.50
2008,06,23,00,26,6.50
2008,06,23,00,27,6.50
2008,06,23,00,28,6.50
2008,06,23,00,29,6.50
2008,06,23,00,30,6.50
2008,06,23,00,31,6.50
2008,06,23,00,32,6.50
2008,06,23,00,33,6.40
2008,06,23,00,34,6.40
2008,06,23,00,35,6.40
2008,06,23,00,36,6.40
2008,06,23,00,37,6.40
2008,06,23,00,38,6.40
2008,06,23,00,39,6.40
2008,06,23,00,40,6.40
2008,06,23,00,41,6.30
2008,06,23,00,42,6.30
2008,06,23,00,43,6.30
2008,06,23,00,44,6.30
2008,06,23,00,45,6.30
2008,06,23,00,46,6.30
2008,06,23,00,47,6.20
2008,06,23,00,48,6.20
2008,06,23,00,49,6.20
2008,06,23,00,50,6.20
2008,06,23,00,51,6.20
2008,06,23,00,52,6.20
2008,06,23,00,53,6.30
2008,06,23,00,54,6.30
2008,06,23,00,55,6.30
2008,06,23,00,56,6.30
2008,06,23,00,57,6.30
2008,06,23,00,58,6.30
2008,06,23,00,59,6.30
2008,06,23,01,00,6.30
2008,06,23,01,01,6.30
2008,06,23,01,02,6.30
2008,06,23,01,03,6.20
2008,06,23,01,04,6.20
2008,06,23,01,05,6.20
2008,06,23,01,06,6.20
2008,06,23,01,07,6.20
2008,06,23,01,08,6.20
2008,06,23,01,09,6.20
2008,06,23,01,10,6.20
2008,06,23,01,11,6.10
2008,06,23,01,12,6.10
2008,06,23,01,13,6.10
2008,06,23,01,14,6.10
2008,06,23,01,15,6.10
2008,06,23,01,16,6.10
2008,06,23,01,17,6.10
2008,06,23,01,18,6.10
2008,06,23,01,19,6.10
2008,06,23,01,20,6.10
2008,06,23,01,21,6.10
2008,06,23,01,22,6.10
2008,06,23,01,23,6.10
2008,06,23,01,24,6.20
2008,06,23,01,25,6.20
2008,06,23,01,26,6.20
2008,06,23,01,27,6.20
2008,06,23,01,28,6.20
2008,06,23,01,29,6.20
2008,06,23,01,30,6.20
2008,06,23,01,31,6.20
2008,06,23,01,32,6.20
2008,06,23,01,33,6.20
2008,06,23,01,34,6.20
2008,06,23,01,35,6.20
2008,06,23,01,36,6.20
2008,06,23,01,37,6.20
2008,06,23,01,38,6.20
2008,06,23,01,39,6.10
2008,06,23,01,40,6.10
2008,06,23,01,41,6.10
2008,06,23,01,42,6.20
2008,06,23,01,43,6.20
2008,06,23,01,44,6.20
2008,06,23,01,45,6.20
2008,06,23,01,46,6.20
2008,06,23,01,47,6.20
2008,06,23,01,48,6.20
2008,06,23,01,49,6.20
2008,06,23,01,50,6.20
2008,06,23,01,51,6.20
2008,06,23,01,52,6.10
2008,06,23,01,53,6.10
2008,06,23,01,54,6.10
2008,06,23,01,55,6.10
2008,06,23,01,56,6.10
2008,06,23,01,57,6.10
2008,06,23,01,58,6.10
2008,06,23,01,59,6.10
2008,06,23,02,00,6.10
2008,06,23,02,01,6.20
2008,06,23,02,02,6.20
2008,06,23,02,03,6.20
2008,06,23,02,04,6.20
2008,06,23,02,05,6.20
2008,06,23,02,06,6.20
2008,06,23,02,07,6.20
2008,06,23,02,08,6.20
2008,06,23,02,09,6.20
2008,06,23,02,10,6.10
2008,06,23,02,11,6.10
2008,06,23,02,12,6.10
2008,06,23,02,13,6.10
2008,06,23,02,14,6.10
2008,06,23,02,15,6.10
2008,06,23,02,16,6.10
2008,06,23,02,17,6.10
2008,06,23,02,18,6.10
2008,06,23,02,19,6.10
2008,06,23,02,20,6.10
2008,06,23,02,21,6.10
2008,06,23,02,22,6.10
2008,06,23,02,23,6.10
2008,06,23,02,24,6.10
2008,06,23,02,25,6.10
2008,06,23,02,26,6.10
2008,06,23,02,27,6.10
2008,06,23,02,28,6.10
2008,06,23,02,29,6.10
2008,06,23,02,30,6.10
2008,06,23,02,31,6.20
2008,06,23,02,32,6.20
2008,06,23,02,33,6.20
2008,06,23,02,34,6.20
2008,06,23,02,35,6.20
2008,06,23,02,36,6.30
2008,06,23,02,37,6.30
2008,06,23,02,38,6.30
2008,06,23,02,39,6.30
2008,06,23,02,40,6.30
2008,06,23,02,41,6.30
2008,06,23,02,42,6.30
2008,06,23,02,43,6.30
2008,06,23,02,44,6.30
2008,06,23,02,45,6.30
2008,06,23,02,46,6.30
2008,06,23,02,47,6.30
2008,06,23,02,48,6.30
2008,06,23,02,49,6.30
2008,06,23,02,50,6.30
2008,06,23,02,51,6.30
2008,06,23,02,52,6.30
2008,06,23,02,53,6.30
2008,06,23,02,54,6.30
2008,06,23,02,55,6.30
2008,06,23,02,56,6.30
2008,06,23,02,57,6.30
2008,06,23,02,58,6.30
2008,06,23,02,59,6.30
2008,06,23,03,00,6.30
2008,06,23,03,01,6.30
2008,06,23,03,02,6.30
2008,06,23,03,03,6.30
2008,06,23,03,04,6.30
2008,06,23,03,05,6.30
2008,06,23,03,06,6.40
2008,06,23,03,07,6.40
2008,06,23,03,08,6.40
2008,06,23,03,09,6.40
2008,06,23,03,10,6.40
2008,06,23,03,11,6.40
2008,06,23,03,12,6.40
2008,06,23,03,13,6.40
2008,06,23,03,14,6.40
2008,06,23,03,15,6.40
2008,06,23,03,16,6.40
2008,06,23,03,17,6.40
2008,06,23,03,18,6.40
2008,06,23,03,19,6.40
2008,06,23,03,20,6.40
2008,06,23,03,21,6.40
2008,06,23,03,22,6.40
2008,06,23,03,23,6.40
2008,06,23,03,24,6.50
2008,06,23,03,25,6.50
2008,06,23,03,26,6.50
2008,06,23,03,27,6.50
2008,06,23,03,28,6.50
2008,06,23,03,29,6.50
2008,06,23,03,30,6.50
2008,06,23,03,31,6.50
2008,06,23,03,32,6.50
2008,06,23,03,33,6.60
2008,06,23,03,34,6.60
2008,06,23,03,35,6.60
2008,06,23,03,36,6.60
2008,06,23,03,37,6.60
2008,06,23,03,38,6.60
2008,06,23,03,39,6.60
2008,06,23,03,40,6.60
2008,06,23,03,41,6.60
2008,06,23,03,42,6.60
2008,06,23,03,43,6.60
2008,06,23,03,44,6.60
2008,06,23,03,45,6.60
2008,06,23,03,46,6.60
2008,06,23,03,47,6.60
2008,06,23,03,48,6.60
2008,06,23,03,49,6.60
2008,06,23,03,50,6.60
2008,06,23,03,51,6.60
2008,06,23,03,52,6.60
2008,06,23,03,53,6.60
2008,06,23,03,54,6.60
2008,06,23,03,55,6.60
2008,06,23,03,56,6.60
2008,06,23,03,57,6.60
2008,06,23,03,58,6.60
2008,06,23,03,59,6.60
2008,06,23,04,00,6.60
2008,06,23,04,01,6.60
2008,06,23,04,02,6.70
2008,06,23,04,03,6.70
2008,06,23,04,04,6.70
2008,06,23,04,05,6.70
2008,06,23,04,06,6.70
2008,06,23,04,07,6.70
2008,06,23,04,08,6.70
2008,06,23,04,09,6.70
2008,06,23,04,10,6.70
2008,06,23,04,11,6.70
2008,06,23,04,12,6.70
2008,06,23,04,13,6.70
2008,06,23,04,14,6.70
2008,06,23,04,15,6.70
2008,06,23,04,16,6.70
2008,06,23,04,17,6.70
2008,06,23,04,18,6.70
2008,06,23,04,19,6.70
2008,06,23,04,20,6.70
2008,06,23,04,21,6.70
2008,06,23,04,22,6.70
2008,06,23,04,23,6.70
2008,06,23,04,24,6.70
2008,06,23,04,25,6.70
2008,06,23,04,26,6.70
2008,06,23,04,27,6.70
2008,06,23,04,28,6.70
2008,06,23,04,29,6.70
2008,06,23,04,30,6.70
2008,06,23,04,31,6.70
2008,06,23,04,32,6.70
2008,06,23,04,33,6.70
2008,06,23,04,34,6.60
2008,06,23,04,35,6.60
2008,06,23,04,36,6.60
2008,06,23,04,37,6.60
2008,06,23,04,38,6.60
2008,06,23,04,39,6.60
2008,06,23,04,40,6.60
2008,06,23,04,41,6.60
2008,06,23,04,42,6.60
2008,06,23,04,43,6.60
2008,06,23,04,44,6.60
2008,06,23,04,45,6.60
2008,06,23,04,46,6.60
2008,06,23,04,47,6.60
2008,06,23,04,48,6.60
2008,06,23,04,49,6.60
2008,06,23,04,50,6.60
2008,06,23,04,51,6.60
2008,06,23,04,52,6.60
2008,06,23,04,53,6.60
2008,06,23,04,54,6.60
2008,06,23,04,55,6.60
2008,06,23,04,56,6.60
2008,06,23,04,57,6.60
2008,06,23,04,58,6.60
2008,06,23,04,59,6.60
2008,06,23,05,00,6.60
2008,06,23,05,01,6.60
2008,06,23,05,02,6.60
2008,06,23,05,03,6.60
2008,06,23,05,04,6.60
2008,06,23,05,05,6.60
2008,06,23,05,06,6.60
2008,06,23,05,07,6.60
2008,06,23,05,08,6.60
2008,06,23,05,09,6.60
2008,06,23,05,10,6.60
2008,06,23,05,11,6.60
2008,06,23,05,12,6.60
2008,06,23,05,13,6.60
2008,06,23,05,14,6.60
2008,06,23,05,15,6.60
2008,06,23,05,16,6.70
2008,06,23,05,17,6.70
2008,06,23,05,18,6.70
2008,06,23,05,19,6.70
2008,06,23,05,20,6.70
2008,06,23,05,21,6.70
2008,06,23,05,22,6.70
2008,06,23,05,23,6.70
2008,06,23,05,24,6.70
2008,06,23,05,25,6.70
2008,06,23,05,26,6.70
2008,06,23,05,27,6.70
2008,06,23,05,28,6.70
2008,06,23,05,29,6.70
2008,06,23,05,30,6.70
2008,06,23,05,31,6.70
2008,06,23,05,32,6.70
2008,06,23,05,33,6.60
2008,06,23,05,34,6.60
2008,06,23,05,35,6.60
2008,06,23,05,36,6.60
2008,06,23,05,37,6.60
2008,06,23,05,38,6.60
2008,06,23,05,39,6.60
2008,06,23,05,40,6.60
2008,06,23,05,41,6.60
2008,06,23,05,42,6.60
2008,06,23,05,43,6.60
2008,06,23,05,44,6.60
2008,06,23,05,45,6.60
2008,06,23,05,46,6.60
2008,06,23,05,47,6.60
2008,06,23,05,48,6.50
2008,06,23,05,49,6.50
2008,06,23,05,50,6.50
2008,06,23,05,51,6.50
2008,06,23,05,52,6.50
2008,06,23,05,53,6.50
2008,06,23,05,54,6.50
2008,06,23,05,55,6.50
2008,06,23,05,56,6.50
2008,06,23,05,57,6.50
2008,06,23,05,58,6.40
2008,06,23,05,59,6.40
2008,06,23,06,00,6.50
2008,06,23,06,01,6.50
2008,06,23,06,02,6.50
2008,06,23,06,03,6.50
2008,06,23,06,04,6.50
2008,06,23,06,05,6.50
2008,06,23,06,06,6.50
2008,06,23,06,07,6.50
2008,06,23,06,08,6.50
2008,06,23,06,09,6.50
2008,06,23,06,10,6.50
2008,06,23,06,11,6.50
2008,06,23,06,12,6.50
2008,06,23,06,13,6.50
2008,06,23,06,14,6.50
2008,06,23,06,15,6.50
2008,06,23,06,16,6.40
2008,06,23,06,17,6.40
2008,06,23,06,18,6.40
2008,06,23,06,19,6.50
2008,06,23,06,20,6.50
2008,06,23,06,21,6.50
2008,06,23,06,22,6.50
2008,06,23,06,23,6.50
2008,06,23,06,24,6.50
2008,06,23,06,25,6.50
2008,06,23,06,26,6.50
2008,06,23,06,27,6.50
2008,06,23,06,28,6.50
2008,06,23,06,29,6.60
2008,06,23,06,30,6.60
2008,06,23,06,31,6.60
2008,06,23,06,32,6.60
2008,06,23,06,33,6.60
2008,06,23,06,34,6.60
2008,06,23,06,35,6.70
2008,06,23,06,36,6.70
2008,06,23,06,37,6.70
2008,06,23,06,38,6.80
2008,06,23,06,39,6.80
2008,06,23,06,40,6.80
2008,06,23,06,41,6.80
2008,06,23,06,42,6.90
2008,06,23,06,43,6.90
2008,06,23,06,44,6.90
2008,06,23,06,45,6.90
2008,06,23,06,46,7.00
2008,06,23,06,47,7.00
2008,06,23,06,48,7.10
2008,06,23,06,49,7.10
2008,06,23,06,50,7.10
2008,06,23,06,51,7.20
2008,06,23,06,52,7.20
2008,06,23,06,53,7.20
2008,06,23,06,54,7.20
2008,06,23,06,55,7.20
2008,06,23,06,56,7.30
2008,06,23,06,57,7.30
2008,06,23,06,58,7.30
2008,06,23,06,59,7.30
2008,06,23,07,00,7.30
2008,06,23,07,01,7.30
2008,06,23,07,02,7.30
2008,06,23,07,03,7.40
2008,06,23,07,04,7.40
2008,06,23,07,05,7.40
2008,06,23,07,06,7.40
2008,06,23,07,07,7.40
2008,06,23,07,08,7.40
2008,06,23,07,09,7.40
2008,06,23,07,10,7.40
2008,06,23,07,11,7.40
2008,06,23,07,12,7.40
2008,06,23,07,13,7.40
2008,06,23,07,14,7.40
2008,06,23,07,15,7.50
2008,06,23,07,16,7.50
2008,06,23,07,17,7.50
2008,06,23,07,18,7.60
2008,06,23,07,19,7.60
2008,06,23,07,20,7.60
2008,06,23,07,21,7.60
2008,06,23,07,22,7.70
2008,06,23,07,23,7.70
2008,06,23,07,24,7.70
2008,06,23,07,25,7.70
2008,06,23,07,26,7.60
2008,06,23,07,27,7.60
2008,06,23,07,28,7.60
2008,06,23,07,29,7.60
2008,06,23,07,30,7.60
2008,06,23,07,31,7.60
2008,06,23,07,32,7.70
2008,06,23,07,33,7.70
2008,06,23,07,34,7.70
2008,06,23,07,35,7.80
2008,06,23,07,36,7.80
2008,06,23,07,37,7.80
2008,06,23,07,38,7.90
2008,06,23,07,39,8.00
2008,06,23,07,40,8.00
2008,06,23,07,41,8.10
2008,06,23,07,42,8.20
2008,06,23,07,43,8.20
2008,06,23,07,44,8.30
2008,06,23,07,45,8.30
2008,06,23,07,46,8.30
2008,06,23,07,47,8.30
2008,06,23,07,48,8.30
2008,06,23,07,49,8.20
2008,06,23,07,50,8.10
2008,06,23,07,51,8.10
2008,06,23,07,52,8.00
2008,06,23,07,53,8.00
2008,06,23,07,54,7.90
2008,06,23,07,55,7.90
2008,06,23,07,56,7.90
2008,06,23,07,57,7.90
2008,06,23,07,58,7.90
2008,06,23,07,59,8.00
2008,06,23,08,00,8.00
2008,06,23,08,01,8.00
2008,06,23,08,02,8.00
2008,06,23,08,03,8.10
2008,06,23,08,04,8.10
2008,06,23,08,05,8.10
2008,06,23,08,06,8.10
2008,06,23,08,07,8.10
2008,06,23,08,08,8.20
2008,06,23,08,09,8.20
2008,06,23,08,10,8.20
2008,06,23,08,11,8.20
2008,06,23,08,12,8.30
2008,06,23,08,13,8.30
2008,06,23,08,14,8.30
2008,06,23,08,15,8.40
2008,06,23,08,16,8.40
2008,06,23,08,17,8.50
2008,06,23,08,18,8.50
2008,06,23,08,19,8.60
2008,06,23,08,20,8.60
2008,06,23,08,21,8.60
2008,06,23,08,22,8.60
2008,06,23,08,23,8.60
2008,06,23,08,24,8.70
2008,06,23,08,25,8.70
2008,06,23,08,26,8.70
2008,06,23,08,27,8.80
2008,06,23,08,28,8.80
2008,06,23,08,29,8.80
2008,06,23,08,30,8.90
2008,06,23,08,31,8.90
2008,06,23,08,32,9.00
2008,06,23,08,33,9.10
2008,06,23,08,34,9.20
2008,06,23,08,35,9.30
2008,06,23,08,36,9.30
2008,06,23,08,37,9.40
2008,06,23,08,38,9.50
2008,06,23,08,39,9.50
2008,06,23,08,40,9.60
2008,06,23,08,41,9.60
2008,06,23,08,42,9.60
2008,06,23,08,43,9.70
2008,06,23,08,44,9.70
2008,06,23,08,45,9.70
2008,06,23,08,46,9.70
2008,06,23,08,47,9.70
2008,06,23,08,48,9.80
2008,06,23,08,49,9.80
2008,06,23,08,50,9.80
2008,06,23,08,51,9.80
2008,06,23,08,52,9.80
2008,06,23,08,53,9.80
2008,06,23,08,54,9.80
2008,06,23,08,55,9.80
2008,06,23,08,56,9.80
2008,06,23,08,57,9.80
2008,06,23,08,58,9.80
2008,06,23,08,59,9.80
2008,06,23,09,00,9.80
2008,06,23,09,01,9.80
2008,06,23,09,02,9.80
2008,06,23,09,03,9.80
2008,06,23,09,04,9.80
2008,06,23,09,05,9.80
2008,06,23,09,06,9.90
2008,06,23,09,07,9.90
2008,06,23,09,08,9.90
2008,06,23,09,09,10.00
2008,06,23,09,10,10.00
2008,06,23,09,11,10.10
2008,06,23,09,12,10.10
2008,06,23,09,13,10.10
2008,06,23,09,14,10.10
2008,06,23,09,15,10.10
2008,06,23,09,16,10.10
2008,06,23,09,17,10.20
2008,06,23,09,18,10.20
2008,06,23,09,19,10.20
2008,06,23,09,20,10.20
2008,06,23,09,21,10.30
2008,06,23,09,22,10.30
2008,06,23,09,23,10.30
2008,06,23,09,24,10.30
2008,06,23,09,25,10.30
2008,06,23,09,26,10.40
2008,06,23,09,27,10.40
2008,06,23,09,28,10.50
2008,06,23,09,29,10.50
2008,06,23,09,30,10.60
2008,06,23,09,31,10.70
2008,06,23,09,32,10.70
2008,06,23,09,33,10.70
2008,06,23,09,34,10.70
2008,06,23,09,35,10.80
2008,06,23,09,36,10.80
2008,06,23,09,37,10.90
2008,06,23,09,38,10.90
2008,06,23,09,39,10.90
2008,06,23,09,40,11.00
2008,06,23,09,41,11.00
2008,06,23,09,42,11.10
2008,06,23,09,43,11.10
2008,06,23,09,44,11.10
2008,06,23,09,45,11.20
2008,06,23,09,46,11.10
2008,06,23,09,47,11.10
2008,06,23,09,48,11.10
2008,06,23,09,49,11.20
2008,06,23,09,50,11.20
2008,06,23,09,51,11.30
2008,06,23,09,52,11.30
2008,06,23,09,53,11.30
2008,06,23,09,54,11.40
2008,06,23,09,55,11.40
2008,06,23,09,56,11.40
2008,06,23,09,57,11.40
2008,06,23,09,58,11.40
2008,06,23,09,59,11.50
2008,06,23,10,00,11.40
2008,06,23,10,01,11.40
2008,06,23,10,02,11.40
2008,06,23,10,03,11.40
2008,06,23,10,04,11.40
2008,06,23,10,05,11.40
2008,06,23,10,06,11.50
2008,06,23,10,07,11.60
2008,06,23,10,08,11.70
2008,06,23,10,09,11.70
2008,06,23,10,10,11.80
2008,06,23,10,11,11.80
2008,06,23,10,12,11.90
2008,06,23,10,13,11.90
2008,06,23,10,14,12.00
2008,06,23,10,15,12.10
2008,06,23,10,16,12.10
2008,06,23,10,17,12.10
2008,06,23,10,18,12.10
2008,06,23,10,19,12.00
2008,06,23,10,20,12.00
2008,06,23,10,21,12.00
2008,06,23,10,22,12.00
2008,06,23,10,23,12.00
2008,06,23,10,24,12.00
2008,06,23,10,25,12.00
2008,06,23,10,26,12.00
2008,06,23,10,27,12.00
2008,06,23,10,28,12.00
2008,06,23,10,29,12.10
2008,06,23,10,30,12.10
2008,06,23,10,31,12.10
2008,06,23,10,32,12.10
2008,06,23,10,33,12.10
2008,06,23,10,34,12.10
2008,06,23,10,35,12.10
2008,06,23,10,36,12.10
2008,06,23,10,37,12.10
2008,06,23,10,38,12.10
2008,06,23,10,39,12.20
2008,06,23,10,40,12.10
2008,06,23,10,41,12.20
2008,06,23,10,42,12.20
2008,06,23,10,43,12.30
2008,06,23,10,44,12.30
2008,06,23,10,45,12.30
2008,06,23,10,46,12.30
2008,06,23,10,47,12.30
2008,06,23,10,48,12.30
2008,06,23,10,49,12.40
2008,06,23,10,50,12.30
2008,06,23,10,51,12.30
2008,06,23,10,52,12.30
2008,06,23,10,53,12.30
2008,06,23,10,54,12.30
2008,06,23,10,55,12.20
2008,06,23,10,56,12.20
2008,06,23,10,57,12.10
2008,06,23,10,58,12.10
2008,06,23,10,59,12.10
2008,06,23,11,00,12.00
2008,06,23,11,01,12.10
2008,06,23,11,02,12.10
2008,06,23,11,03,12.10
2008,06,23,11,04,12.10
2008,06,23,11,05,12.10
2008,06,23,11,06,12.10
2008,06,23,11,07,12.10
2008,06,23,11,08,12.20
2008,06,23,11,09,12.10
2008,06,23,11,10,12.10
2008,06,23,11,11,12.00
2008,06,23,11,12,12.00
2008,06,23,11,13,12.00
2008,06,23,11,14,12.10
2008,06,23,11,15,12.20
2008,06,23,11,16,12.20
2008,06,23,11,17,12.20
2008,06,23,11,18,12.30
2008,06,23,11,19,12.30
2008,06,23,11,20,12.30
2008,06,23,11,21,12.40
2008,06,23,11,22,12.40
2008,06,23,11,23,12.40
2008,06,23,11,24,12.30
2008,06,23,11,25,12.30
2008,06,23,11,26,12.30
2008,06,23,11,27,12.30
2008,06,23,11,28,12.30
2008,06,23,11,29,12.30
2008,06,23,11,30,12.30
2008,06,23,11,31,12.20
2008,06,23,11,32,12.30
2008,06,23,11,33,12.40
2008,06,23,11,34,12.50
2008,06,23,11,35,12.60
2008,06,23,11,36,12.60
2008,06,23,11,37,12.60
2008,06,23,11,38,12.70
2008,06,23,11,39,12.60
2008,06,23,11,40,12.50
2008,06,23,11,41,12.60
2008,06,23,11,42,12.60
2008,06,23,11,43,12.50
2008,06,23,11,44,12.40
2008,06,23,11,45,12.40
2008,06,23,11,46,12.40
2008,06,23,11,47,12.40
2008,06,23,11,48,12.50
2008,06,23,11,49,12.60
2008,06,23,11,50,12.60
2008,06,23,11,51,12.60
2008,06,23,11,52,12.50
2008,06,23,11,53,12.60
2008,06,23,11,54,12.70
2008,06,23,11,55,12.70
2008,06,23,11,56,12.80
2008,06,23,11,57,12.80
2008,06,23,11,58,12.80
2008,06,23,11,59,12.90
2008,06,23,12,00,12.80
2008,06,23,12,01,12.80
2008,06,23,12,02,12.90
2008,06,23,12,03,13.10
2008,06,23,12,04,13.10
2008,06,23,12,05,13.00
2008,06,23,12,06,13.00
2008,06,23,12,07,12.90
2008,06,23,12,08,12.90
2008,06,23,12,09,12.80
2008,06,23,12,10,12.80
2008,06,23,12,11,12.80
2008,06,23,12,12,12.50
2008,06,23,12,13,12.30
2008,06,23,12,14,12.20
2008,06,23,12,15,12.10
2008,06,23,12,16,12.00
2008,06,23,12,17,11.90
2008,06,23,12,18,12.00
2008,06,23,12,19,12.10
2008,06,23,12,20,12.20
2008,06,23,12,21,12.20
2008,06,23,12,22,12.40
2008,06,23,12,23,12.50
2008,06,23,12,24,12.60
2008,06,23,12,25,12.60
2008,06,23,12,26,12.60
2008,06,23,12,27,12.50
2008,06,23,12,28,12.50
2008,06,23,12,29,12.50
2008,06,23,12,30,12.40
2008,06,23,12,31,12.40
2008,06,23,12,32,12.50
2008,06,23,12,33,12.50
2008,06,23,12,34,12.50
2008,06,23,12,35,12.50
2008,06,23,12,36,12.60
2008,06,23,12,37,12.60
2008,06,23,12,38,12.70
2008,06,23,12,39,12.80
2008,06,23,12,40,12.80
2008,06,23,12,41,12.80
2008,06,23,12,42,12.80
2008,06,23,12,43,12.80
2008,06,23,12,44,12.80
2008,06,23,12,45,12.80
2008,06,23,12,46,12.90
2008,06,23,12,47,12.90
2008,06,23,12,48,13.00
2008,06,23,12,49,13.10
2008,06,23,12,50,13.10
2008,06,23,12,51,13.10
2008,06,23,12,52,13.10
2008,06,23,12,53,13.20
2008,06,23,12,54,13.30
2008,06,23,12,55,13.30
2008,06,23,12,56,13.30
2008,06,23,12,57,13.40
2008,06,23,12,58,13.50
2008,06,23,12,59,13.60
2008,06,23,13,00,13.70
2008,06,23,13,01,13.80
2008,06,23,13,02,13.90
2008,06,23,13,03,13.90
2008,06,23,13,04,14.00
2008,06,23,13,05,14.10
2008,06,23,13,06,14.10
2008,06,23,13,07,14.10
2008,06,23,13,08,14.10
2008,06,23,13,09,14.20
2008,06,23,13,10,14.20
2008,06,23,13,11,14.20
2008,06,23,13,12,14.10
2008,06,23,13,13,14.10
2008,06,23,13,14,14.10
2008,06,23,13,15,14.10
2008,06,23,13,16,14.20
2008,06,23,13,17,14.40
2008,06,23,13,18,14.50
2008,06,23,13,19,14.60
2008,06,23,13,20,14.70
2008,06,23,13,21,14.80
2008,06,23,13,22,14.90
2008,06,23,13,23,15.00
2008,06,23,13,24,14.90
2008,06,23,13,25,14.80
2008,06,23,13,26,14.90
2008,06,23,13,27,14.90
2008,06,23,13,28,14.80
2008,06,23,13,29,14.80
2008,06,23,13,30,14.90
2008,06,23,13,31,15.00
2008,06,23,13,32,15.00
2008,06,23,13,33,15.10
2008,06,23,13,34,15.30
2008,06,23,13,35,15.40
2008,06,23,13,36,15.60
2008,06,23,13,37,15.70
2008,06,23,13,38,15.70
2008,06,23,13,39,15.80
2008,06,23,13,40,15.80
2008,06,23,13,41,15.90
2008,06,23,13,42,15.90
2008,06,23,13,43,15.80
2008,06,23,13,44,15.60
2008,06,23,13,45,15.40
2008,06,23,13,46,15.10
2008,06,23,13,47,15.00
2008,06,23,13,48,14.90
2008,06,23,13,49,14.80
2008,06,23,13,50,14.70
2008,06,23,13,51,14.70
2008,06,23,13,52,14.70
2008,06,23,13,53,14.80
2008,06,23,13,54,14.80
2008,06,23,13,55,14.90
2008,06,23,13,56,15.00
2008,06,23,13,57,15.00
2008,06,23,13,58,15.20
2008,06,23,13,59,15.30
2008,06,23,14,00,15.30
2008,06,23,14,01,15.40
2008,06,23,14,02,15.40
2008,06,23,14,03,15.20
2008,06,23,14,04,15.10
2008,06,23,14,05,15.00
2008,06,23,14,06,14.80
2008,06,23,14,07,14.80
2008,06,23,14,08,14.80
2008,06,23,14,09,14.70
2008,06,23,14,10,14.60
2008,06,23,14,11,14.60
2008,06,23,14,12,14.50
2008,06,23,14,13,14.40
2008,06,23,14,14,14.30
2008,06,23,14,15,14.20
2008,06,23,14,16,14.20
2008,06,23,14,17,14.20
2008,06,23,14,18,14.20
2008,06,23,14,19,14.20
2008,06,23,14,20,14.20
2008,06,23,14,21,14.10
2008,06,23,14,22,14.00
2008,06,23,14,23,13.90
2008,06,23,14,24,13.90
2008,06,23,14,25,13.90
2008,06,23,14,26,13.90
2008,06,23,14,27,13.90
2008,06,23,14,28,13.90
2008,06,23,14,29,14.00
2008,06,23,14,30,14.10
2008,06,23,14,31,14.10
2008,06,23,14,32,14.10
2008,06,23,14,33,14.10
2008,06,23,14,34,14.20
2008,06,23,14,35,14.30
2008,06,23,14,36,14.20
2008,06,23,14,37,14.00
2008,06,23,14,38,13.80
2008,06,23,14,39,13.60
2008,06,23,14,40,13.60
2008,06,23,14,41,13.60
2008,06,23,14,42,13.60
2008,06,23,14,43,13.60
2008,06,23,14,44,13.60
2008,06,23,14,45,13.60
2008,06,23,14,46,13.60
2008,06,23,14,47,13.60
2008,06,23,14,48,13.50
2008,06,23,14,49,13.40
2008,06,23,14,50,13.30
2008,06,23,14,51,13.30
2008,06,23,14,52,13.30
2008,06,23,14,53,13.40
2008,06,23,14,54,13.40
2008,06,23,14,55,13.50
2008,06,23,14,56,13.60
2008,06,23,14,57,13.70
2008,06,23,14,58,13.80
2008,06,23,14,59,13.90
2008,06,23,15,00,13.90
2008,06,23,15,01,13.90
2008,06,23,15,02,14.00
2008,06,23,15,03,13.90
2008,06,23,15,04,13.90
2008,06,23,15,05,13.80
2008,06,23,15,06,13.70
2008,06,23,15,07,13.60
2008,06,23,15,08,13.60
2008,06,23,15,09,13.50
2008,06,23,15,10,13.60
2008,06,23,15,11,13.60
2008,06,23,15,12,13.70
2008,06,23,15,13,13.70
2008,06,23,15,14,13.80
2008,06,23,15,15,13.90
2008,06,23,15,16,14.00
2008,06,23,15,17,14.00
2008,06,23,15,18,14.10
2008,06,23,15,19,14.10
2008,06,23,15,20,14.10
2008,06,23,15,21,14.20
2008,06,23,15,22,14.20
2008,06,23,15,23,14.30
2008,06,23,15,24,14.40
2008,06,23,15,25,14.50
2008,06,23,15,26,14.60
2008,06,23,15,27,14.60
2008,06,23,15,28,14.60
2008,06,23,15,29,14.50
2008,06,23,15,30,14.50
2008,06,23,15,31,14.50
2008,06,23,15,32,14.30
2008,06,23,15,33,14.20
2008,06,23,15,34,14.10
2008,06,23,15,35,14.00
2008,06,23,15,36,13.90
2008,06,23,15,37,14.00
2008,06,23,15,38,13.90
2008,06,23,15,39,13.80
2008,06,23,15,40,13.80
2008,06,23,15,41,13.70
2008,06,23,15,42,13.70
2008,06,23,15,43,13.70
2008,06,23,15,44,13.80
2008,06,23,15,45,13.70
2008,06,23,15,46,13.70
2008,06,23,15,47,13.70
2008,06,23,15,48,13.70
2008,06,23,15,49,13.70
2008,06,23,15,50,13.70
2008,06,23,15,51,13.50
2008,06,23,15,52,13.50
2008,06,23,15,53,13.40
2008,06,23,15,54,13.40
2008,06,23,15,55,13.40
2008,06,23,15,56,13.30
2008,06,23,15,57,13.20
2008,06,23,15,58,13.20
2008,06,23,15,59,13.30
2008,06,23,16,00,13.40
2008,06,23,16,01,13.40
2008,06,23,16,02,13.40
2008,06,23,16,03,13.40
2008,06,23,16,04,13.30
2008,06,23,16,05,13.30
2008,06,23,16,06,13.30
2008,06,23,16,07,13.20
2008,06,23,16,08,13.20
2008,06,23,16,09,13.20
2008,06,23,16,10,13.20
2008,06,23,16,11,13.20
2008,06,23,16,12,13.30
2008,06,23,16,13,13.20
2008,06,23,16,14,13.10
2008,06,23,16,15,13.10
2008,06,23,16,16,13.20
2008,06,23,16,17,13.20
2008,06,23,16,18,13.30
2008,06,23,16,19,13.40
2008,06,23,16,20,13.60
2008,06,23,16,21,13.60
2008,06,23,16,22,13.70
2008,06,23,16,23,13.80
2008,06,23,16,24,13.70
2008,06,23,16,25,13.70
2008,06,23,16,26,13.80
2008,06,23,16,27,13.80
2008,06,23,16,28,13.80
2008,06,23,16,29,13.70
2008,06,23,16,30,13.60
2008,06,23,16,31,13.60
2008,06,23,16,32,13.50
2008,06,23,16,33,13.50
2008,06,23,16,34,13.40
2008,06,23,16,35,13.30
2008,06,23,16,36,13.30
2008,06,23,16,37,13.10
2008,06,23,16,38,13.00
2008,06,23,16,39,12.90
2008,06,23,16,40,12.70
2008,06,23,16,41,12.60
2008,06,23,16,42,12.50
2008,06,23,16,43,12.40
2008,06,23,16,44,12.50
2008,06,23,16,45,12.40
2008,06,23,16,46,12.40
2008,06,23,16,47,12.40
2008,06,23,16,48,12.50
2008,06,23,16,49,12.40
2008,06,23,16,50,12.50
2008,06,23,16,51,12.50
2008,06,23,16,52,12.50
2008,06,23,16,53,12.50
2008,06,23,16,54,12.60
2008,06,23,16,55,12.70
2008,06,23,16,56,12.80
2008,06,23,16,57,12.80
2008,06,23,16,58,13.00
2008,06,23,16,59,13.10
2008,06,23,17,00,13.10
2008,06,23,17,01,13.10
2008,06,23,17,02,13.10
2008,06,23,17,03,13.10
2008,06,23,17,04,13.10
2008,06,23,17,05,13.10
2008,06,23,17,06,13.20
2008,06,23,17,07,13.20
2008,06,23,17,08,13.20
2008,06,23,17,09,13.20
2008,06,23,17,10,13.30
2008,06,23,17,11,13.30
2008,06,23,17,12,13.30
2008,06,23,17,13,13.30
2008,06,23,17,14,13.20
2008,06,23,17,15,13.20
2008,06,23,17,16,13.10
2008,06,23,17,17,13.00
2008,06,23,17,18,13.00
2008,06,23,17,19,12.90
2008,06,23,17,20,12.90
2008,06,23,17,21,12.90
2008,06,23,17,22,12.80
2008,06,23,17,23,12.70
2008,06,23,17,24,12.70
2008,06,23,17,25,12.70
2008,06,23,17,26,12.70
2008,06,23,17,27,12.70
2008,06,23,17,28,12.80
2008,06,23,17,29,12.80
2008,06,23,17,30,12.80
2008,06,23,17,31,12.80
2008,06,23,17,32,12.80
2008,06,23,17,33,12.80
2008,06,23,17,34,12.60
2008,06,23,17,35,12.50
2008,06,23,17,36,12.40
2008,06,23,17,37,12.20
2008,06,23,17,38,12.20
2008,06,23,17,39,12.20
2008,06,23,17,40,12.20
2008,06,23,17,41,12.20
2008,06,23,17,42,12.20
2008,06,23,17,43,12.20